[[{"header":{"parameterUnit":"m.s-1","parameterCategory":1,"la1":30.2991,"la2":30.254,"lo1":-89.0895,"lo2":-89.0444,"dy":0.0017,"dx":0.0017,"nx":28,"ny":28,"refTime":"2024-10-18T09:00:00:Z","depth":0,"parameterNumber":2,"parameterNumberName":"U-component_of_WINDS"},"data":[0,0,0,0,0,0,0,0,0,0,0,0,0,0,0,0,0,0,0,0,0,0,0,0,0,0,0,0,0,0,0,0,0,0,0,0,0,0,0,0,0,0,0,0,0,0,0,0,0,0,0,0,0,0,0,0,0,0,-5.0198,-5.0198,0,-5.0221,-5.0221,-5.0221,-5.0095,-5.0091,-5.0087,-5.0084,-5.011,-5.0114,-5.0118,0,0,0,0,0,0,0,0,0,0,0,0,0,-5.0047,-5.005,-5.0198,-5.0198,-5.0198,-5.0221,-5.0221,-5.0221,-5.0095,-5.0091,-5.0086,-5.0082,-5.0109,-5.0113,-5.0118,0,0,0,0,0,0,0,0,0,0,0,0,0,-5.0096,-5.0051,-5.0198,-5.0138,-5.0133,-5.0221,-5.0221,-5.0222,-5.0096,-5.0091,-5.0085,-5.008,-5.0107,-5.0113,-5.0119,-5.0266,0,0,-5.0138,-5.014,0,0,0,0,0,0,0,0,-5.0093,-5.0101,-5.0146,-5.0142,-5.0137,-5.0149,-5.0177,-5.0237,-5.0098,-5.011,-5.0084,-5.0078,-5.0128,-5.0132,-5.0148,-5.0267,-5.0268,-5.0138,-5.0142,-5.0145,-5.0146,0,0,0,0,0,0,0,-5.009,-5.01,-5.0207,-5.0147,-5.0141,-5.0111,-5.0112,-5.0188,-5.0149,-5.0109,-5.01,-5.0104,-5.0124,-5.0142,-5.0148,-5.0269,-5.0138,-5.0143,-5.0147,-5.015,-5.0512,-5.0518,0,0,0,0,0,0,-5.0094,-5.0098,-5.0206,-5.0207,-5.0101,-5.0118,-5.0119,-5.0151,-5.0148,-5.0142,-5.0109,-5.0098,-5.0135,-5.0141,-5.0148,-5.0322,-5.0144,-5.015,-5.0154,-5.0506,-5.0514,-5.052,0,0,0,0,0,0,-5.0091,-5.0105,-5.0205,-5.015,-5.016,-5.0126,-5.0163,-5.0154,-5.0172,-5.0148,-5.0141,-5.0135,-5.0131,-5.014,-5.0238,-5.0321,-5.0153,-5.0159,-5.0499,-5.0509,-5.0517,-5.0671,0,0,0,0,0,0,-5.0087,-5.0105,-5.0159,-5.0152,-5.0164,-5.0294,-5.0168,-5.0158,-5.0183,-5.017,-5.017,-5.0165,-5.0127,-5.023,-5.0244,-5.0327,-5.0163,-5.0492,-5.0503,-5.0514,-5.0658,-5.0684,-5.0706,0,0,0,0,0,-5.0082,-5.0202,-5.0163,-5.0177,-5.0232,-5.0299,-5.0306,-5.0259,-5.019,-5.0246,-5.023,-5.0165,-5.0309,-5.0241,-5.0256,-5.0342,-5.0486,-5.05,-5.0513,-5.0647,-5.0679,-5.0705,0,0,0,0,0,0,-5.022,-5.0199,-5.0156,-5.0276,-5.0291,-5.0278,-5.0346,-5.0293,-5.0327,-5.0313,-5.0254,-5.0255,-5.0365,-5.0362,-5.0286,-5.0485,-5.0386,-5.0403,-5.0483,-5.0512,-5.0536,-5.0535,-5.0168,0,0,0,0,0,-5.0264,-5.032,-5.0299,-5.0407,-5.0417,-5.0381,-5.0408,-5.0371,-5.0383,-5.0389,-5.038,-5.0396,-5.0444,-5.0478,-5.0521,-5.0656,-5.0656,-5.0723,-5.0747,-5.0766,-5.0783,-5.0857,-5.0887,-5.0564,-5.0564,-5.0564,0,0,-5.0356,-5.0352,-5.0391,-5.0435,-5.0441,-5.0502,-5.0386,-5.0455,-5.05,-5.0399,-5.0492,-5.0487,-5.05,-5.0619,-5.067,-5.062,-5.0872,-5.0784,-5.08,-5.0805,-5.0874,-5.0905,-5.0932,-5.0573,-5.0572,-5.057,0,0,-5.0555,-5.0556,-5.0648,-5.0657,-5.0668,-5.0644,-5.0666,-5.0662,-5.0654,-5.0746,-5.0673,-5.0726,-5.081,-5.0824,-5.0842,-5.1048,-5.099,-5.1063,-5.1189,-5.1262,-5.1288,-5.131,-5.1386,-5.1414,-5.1079,-5.108,-5.108,0,-5.0668,-5.0755,-5.0701,-5.0776,-5.0798,-5.071,-5.0803,-5.0815,-5.084,-5.0859,-5.0801,-5.0908,-5.091,-5.1032,-5.1082,-5.1099,-5.1124,-5.1064,-5.1288,-5.131,-5.133,-5.1402,-5.1431,-5.1089,-5.1088,-5.1087,-5.1086,0,-5.0895,-5.0957,-5.103,-5.1057,-5.1088,-5.1171,-5.1131,-5.1169,-5.1129,-5.1111,-5.1208,-5.1207,-5.1251,-5.1276,-5.1238,-5.1393,-5.1362,-5.1298,-5.1198,-5.1371,-5.1438,-5.1465,-5.1102,-5.1098,-5.1096,-5.1093,0,0,-5.1182,-5.1179,-5.1207,-5.1219,-5.1226,-5.1273,-5.1353,-5.1395,-5.143,-5.145,-5.1518,-5.1592,-5.1533,-5.1554,-5.1516,-5.158,-5.1747,-5.1507,-5.1507,-5.1554,-5.1921,-5.1972,-5.2005,-5.1708,-5.1713,-5.1717,-5.1921,0,-5.1378,-5.1515,-5.1469,-5.1609,-5.1667,-5.1584,-5.1654,-5.1667,-5.1653,-5.1701,-5.1684,-5.174,-5.1656,-5.1668,-5.1727,-5.1714,-5.182,-5.1698,-5.1772,-5.1775,-5.1774,-5.2039,-5.2092,-5.2285,-5.1947,-5.1951,-5.1954,0,-5.1626,-5.1658,-5.1803,-5.1802,-5.1824,-5.1888,-5.1924,-5.197,-5.1984,-5.1969,-5.1993,-5.1942,-5.2023,-5.1921,-5.2032,-5.195,-5.1978,-5.1976,-5.1982,-5.1989,-5.1877,-5.2056,-5.2345,-5.2376,-5.1994,-5.1991,-5.1988,0,-5.1824,-5.1902,-5.2,-5.2012,-5.2013,-5.206,-5.2063,-5.207,-5.2099,-5.2131,-5.2149,-5.219,-5.2213,-5.2246,-5.2209,-5.2138,-5.2327,-5.2222,-5.2319,-5.2321,-5.2364,-5.2363,-5.2665,-5.2378,-5.2378,-5.2377,-5.2377,0,-5.205,-5.2143,-5.2089,-5.215,-5.2252,-5.2199,-5.2302,-5.2295,-5.2303,-5.2362,-5.2292,-5.2349,-5.2295,-5.2348,-5.2319,-5.2417,-5.2427,-5.2419,-5.2411,-5.2427,-5.2428,-5.2446,-5.2432,-5.2385,-5.2383,-5.2382,-5.2381,0,-5.2289,-5.2256,-5.2358,-5.235,-5.2351,-5.2427,-5.2421,-5.2477,-5.2458,-5.2533,-5.2548,-5.2519,-5.2577,-5.2542,-5.2602,-5.2582,-5.2711,-5.2683,-5.2707,-5.2701,-5.2801,-5.2793,-5.3127,-5.317,-5.2854,-5.2857,-5.2859,0,-5.2436,-5.2506,-5.2506,-5.2541,-5.2548,-5.2604,-5.2633,-5.2584,-5.2618,-5.2639,-5.2694,-5.2746,-5.2786,-5.2883,-5.2868,-5.2914,-5.2888,-5.3002,-5.2894,-5.2909,-5.2893,-5.2891,-5.2899,-5.3024,-5.3028,-5.3031,-5.3033,0,-5.2703,-5.2683,-5.2728,-5.2768,-5.2805,-5.2834,-5.2858,-5.289,-5.2841,-5.2883,-5.2942,-5.2973,-5.3034,-5.3088,-5.3127,-5.313,-5.3076,-5.3067,-5.3093,-5.3111,-5.3123,-5.3121,-5.2769,-5.306,-5.3058,-5.3056,-5.3054,-5.3053,-5.2902,-5.2961,-5.2971,-5.3024,-5.3036,-5.3061,-5.3114,-5.3102,-5.315,-5.3196,-5.3164,-5.3234,-5.3248,-5.3295,-5.3306,-5.3361,-5.3316,-5.3352,-5.3362,-5.3372,-5.3387,-5.3113,-5.3368,-5.3367,-5.3366,-5.3366,-5.3365,0,-5.3167,-5.3169,-5.3218,-5.3254,-5.3296,-5.3239,-5.3263,-5.3302,-5.3365,-5.3382,-5.3422,-5.3492,-5.3544,-5.3533,-5.3581,-5.3628,-5.3604,-5.3642,-5.364,-5.3642,-5.3424,-5.3398,-5.3661,-5.3661,-5.3661,-5.3661,-5.3661,-5.3661,-5.331,-5.3408,-5.339,-5.3494,-5.3496,-5.3564,-5.3583,-5.3606,-5.3619,-5.37,-5.3743,-5.3735,-5.3742,-5.379,-5.3836,-5.3831,-5.3854,-5.3902,-5.3889,-5.3686,-5.3657,-5.3629,-5.3605,-5.3907,-5.3907,-5.4103,-5.4105,-5.4106]},{"header":{"parameterUnit":"m.s-1","parameterCategory":1,"la1":30.2991,"la2":30.254,"lo1":-89.0895,"lo2":-89.0444,"dy":0.0017,"dx":0.0017,"nx":28,"ny":28,"refTime":"2024-10-18T09:00:00:Z","depth":0,"parameterNumber":3,"parameterNumberName":"V-component_of_WINDS"},"data":[0,0,0,0,0,0,0,0,0,0,0,0,0,0,0,0,0,0,0,0,0,0,0,0,0,0,0,0,0,0,0,0,0,0,0,0,0,0,0,0,0,0,0,0,0,0,0,0,0,0,0,0,0,0,0,0,0,0,-1.7855,-1.7855,0,-1.7857,-1.7857,-1.7857,-1.7806,-1.7805,-1.7804,-1.7802,-1.7805,-1.7806,-1.7807,0,0,0,0,0,0,0,0,0,0,0,0,0,-1.7809,-1.781,-1.7855,-1.7855,-1.7855,-1.7857,-1.7857,-1.7857,-1.7806,-1.7805,-1.7803,-1.7802,-1.7804,-1.7806,-1.7807,0,0,0,0,0,0,0,0,0,0,0,0,0,-1.7821,-1.781,-1.7855,-1.783,-1.7828,-1.7857,-1.7857,-1.7857,-1.7807,-1.7805,-1.7803,-1.7801,-1.7804,-1.7805,-1.7807,-1.786,0,0,-1.7813,-1.7814,0,0,0,0,0,0,0,0,-1.7821,-1.7823,-1.7834,-1.7832,-1.783,-1.7829,-1.7841,-1.7858,-1.7807,-1.7815,-1.7802,-1.78,-1.7814,-1.7815,-1.782,-1.786,-1.786,-1.7814,-1.7815,-1.7816,-1.7816,0,0,0,0,0,0,0,-1.782,-1.7823,-1.7856,-1.7834,-1.7832,-1.7819,-1.7819,-1.7844,-1.7826,-1.7814,-1.781,-1.7811,-1.7813,-1.7818,-1.782,-1.786,-1.7814,-1.7815,-1.7817,-1.7817,-1.7944,-1.7946,0,0,0,0,0,0,-1.7822,-1.7822,-1.7856,-1.7856,-1.782,-1.7821,-1.7821,-1.7831,-1.7826,-1.7823,-1.7813,-1.7809,-1.7816,-1.7818,-1.782,-1.7882,-1.7816,-1.7818,-1.7819,-1.7942,-1.7944,-1.7947,0,0,0,0,0,0,-1.7822,-1.7826,-1.7856,-1.7838,-1.7841,-1.7824,-1.7837,-1.7833,-1.7838,-1.7825,-1.7821,-1.7822,-1.7814,-1.7817,-1.785,-1.7881,-1.7818,-1.782,-1.7939,-1.7943,-1.7946,-1.8006,0,0,0,0,0,0,-1.782,-1.7826,-1.7846,-1.7839,-1.7842,-1.7887,-1.7838,-1.7834,-1.7841,-1.7836,-1.7832,-1.783,-1.7813,-1.7848,-1.7852,-1.7883,-1.7822,-1.7936,-1.7941,-1.7945,-1.8001,-1.8011,-1.8019,0,0,0,0,0,-1.7819,-1.7863,-1.7847,-1.7851,-1.7867,-1.7889,-1.789,-1.787,-1.7844,-1.7864,-1.7855,-1.783,-1.7876,-1.7852,-1.7856,-1.7888,-1.7934,-1.794,-1.7944,-1.7997,-1.8009,-1.8019,0,0,0,0,0,0,-1.7874,-1.7862,-1.7844,-1.7887,-1.7889,-1.788,-1.7905,-1.7883,-1.7893,-1.7888,-1.7862,-1.7862,-1.79,-1.7897,-1.7869,-1.7938,-1.7901,-1.7907,-1.794,-1.7951,-1.796,-1.796,-1.7823,0,0,0,0,0,-1.7891,-1.791,-1.7898,-1.7937,-1.7939,-1.7922,-1.7931,-1.7915,-1.7916,-1.7917,-1.7911,-1.7913,-1.7928,-1.7939,-1.7952,-1.8,-1.7999,-1.8024,-1.8033,-1.804,-1.8046,-1.8072,-1.8083,-1.7963,-1.7963,-1.7963,0,0,-1.7927,-1.7923,-1.7936,-1.7948,-1.7948,-1.7968,-1.7923,-1.7946,-1.7961,-1.792,-1.7952,-1.7947,-1.7948,-1.7989,-1.8007,-1.7988,-1.8079,-1.8046,-1.8052,-1.8055,-1.8078,-1.809,-1.81,-1.7966,-1.7966,-1.7965,0,0,-1.8004,-1.8001,-1.8034,-1.8035,-1.8035,-1.8023,-1.8031,-1.8024,-1.802,-1.8051,-1.8021,-1.8038,-1.8064,-1.8066,-1.8071,-1.8147,-1.8124,-1.8151,-1.8199,-1.8225,-1.8234,-1.8242,-1.8271,-1.8281,-1.8157,-1.8157,-1.8157,0,-1.8048,-1.8078,-1.8054,-1.8079,-1.8085,-1.8048,-1.8081,-1.8083,-1.8088,-1.8093,-1.8071,-1.8104,-1.8101,-1.8143,-1.8161,-1.8166,-1.8174,-1.8153,-1.8234,-1.8243,-1.825,-1.8277,-1.8287,-1.8161,-1.816,-1.816,-1.816,0,-1.8133,-1.8154,-1.818,-1.8186,-1.8194,-1.8223,-1.8204,-1.8216,-1.8198,-1.8189,-1.8221,-1.8217,-1.8229,-1.8237,-1.822,-1.8276,-1.8264,-1.8239,-1.8201,-1.8265,-1.829,-1.83,-1.8166,-1.8164,-1.8163,-1.8163,0,0,-1.8247,-1.8237,-1.8247,-1.8249,-1.8246,-1.8262,-1.8289,-1.83,-1.8311,-1.8315,-1.8338,-1.836,-1.8337,-1.8342,-1.8325,-1.8347,-1.8408,-1.8319,-1.8318,-1.8337,-1.8471,-1.8492,-1.8504,-1.8392,-1.8394,-1.8395,-1.8471,0,-1.8322,-1.8368,-1.8347,-1.8395,-1.8414,-1.8379,-1.8402,-1.8403,-1.8394,-1.8409,-1.8399,-1.8416,-1.8383,-1.8386,-1.8406,-1.8397,-1.8435,-1.8391,-1.8414,-1.8415,-1.8417,-1.8516,-1.8538,-1.861,-1.8481,-1.8482,-1.8483,0,-1.8416,-1.8424,-1.8475,-1.8468,-1.8475,-1.8497,-1.8505,-1.8519,-1.8519,-1.8511,-1.8517,-1.8494,-1.8521,-1.8481,-1.8517,-1.8488,-1.8495,-1.8492,-1.8495,-1.8498,-1.8455,-1.8524,-1.8633,-1.8644,-1.8498,-1.8497,-1.8496,0,-1.8496,-1.8518,-1.8552,-1.8554,-1.8547,-1.8563,-1.8561,-1.8558,-1.8566,-1.8573,-1.8579,-1.8589,-1.8595,-1.8603,-1.8584,-1.8557,-1.8624,-1.8582,-1.8619,-1.8619,-1.8636,-1.8636,-1.875,-1.8638,-1.8638,-1.8638,-1.8637,0,-1.8583,-1.8616,-1.8587,-1.8608,-1.8644,-1.8618,-1.8654,-1.8648,-1.8646,-1.8665,-1.8634,-1.8652,-1.8625,-1.8641,-1.8626,-1.8659,-1.8662,-1.8657,-1.8653,-1.8661,-1.8662,-1.8667,-1.8662,-1.864,-1.864,-1.8639,-1.8639,0,-1.8679,-1.8661,-1.8696,-1.8685,-1.8683,-1.871,-1.8701,-1.872,-1.8708,-1.8733,-1.8737,-1.8719,-1.8736,-1.8717,-1.8733,-1.8723,-1.8768,-1.8755,-1.8768,-1.8765,-1.8803,-1.8801,-1.8926,-1.8942,-1.8819,-1.882,-1.8821,0,-1.8737,-1.8762,-1.8754,-1.8764,-1.8763,-1.878,-1.8788,-1.8764,-1.8773,-1.8774,-1.8793,-1.8807,-1.8818,-1.8846,-1.8835,-1.8847,-1.8836,-1.8879,-1.8837,-1.8845,-1.8838,-1.8838,-1.8841,-1.8888,-1.889,-1.8891,-1.8892,0,-1.8843,-1.8832,-1.8845,-1.8855,-1.8865,-1.8871,-1.8875,-1.8885,-1.8859,-1.8872,-1.8889,-1.8896,-1.8912,-1.8927,-1.8935,-1.8933,-1.8909,-1.8904,-1.8914,-1.8923,-1.893,-1.8929,-1.8793,-1.8902,-1.8901,-1.89,-1.89,-1.8899,-1.8923,-1.8943,-1.8941,-1.8956,-1.8956,-1.896,-1.8977,-1.8967,-1.8981,-1.8992,-1.8976,-1.8997,-1.8995,-1.9004,-1.9004,-1.902,-1.9002,-1.9015,-1.9019,-1.9023,-1.903,-1.8926,-1.9022,-1.9021,-1.9021,-1.9021,-1.902,0,-1.9028,-1.9024,-1.9038,-1.9045,-1.9057,-1.9031,-1.9034,-1.9046,-1.9065,-1.9065,-1.9076,-1.9095,-1.9109,-1.9098,-1.911,-1.9125,-1.9114,-1.9129,-1.9129,-1.9129,-1.9045,-1.9036,-1.9138,-1.9138,-1.9138,-1.9138,-1.9138,-1.9138,-1.9085,-1.9118,-1.9107,-1.914,-1.9135,-1.9156,-1.916,-1.9164,-1.9164,-1.9187,-1.9198,-1.919,-1.9186,-1.9197,-1.9209,-1.9205,-1.9212,-1.9231,-1.9224,-1.9146,-1.9135,-1.9124,-1.9116,-1.9233,-1.9233,-1.9307,-1.9308,-1.9309]}]]